Temperature
16 16 16 16 15 15 15 16 16 16 16 16 16 16 16 16 15 15 15 15 15 15 15 15 15 15 15 15 15 15 15 15 15 15 15 15 15 15 15 15 15 15 15
16 16 15 15 15 15 15 15 15 15 15 15 15 15 15 15 15 15 15 15 15 15 15 15 15 15 15 15 15 15 15 15 15 15 15 15 15 15 15 15 15 15 15
16 15 15 15 15 15 15 15 15 15 15 15 15 15 15 15 15 15 15 15 15 15 15 15 15 15 15 15 15 15 15 15 15 15 15 15 15 15 15 15 15 15 15
15 15 15 15 15 15 15 15 15 15 15 15 15 15 15 15 15 15 15 15 15 15 15 15 15 15 15 15 15 15 15 14 14 14 15 15 15 15 14 14 14 14 14
15 15 15 15 15 15 15 15 15 15 15 15 15 15 15 15 15 15 15 15 15 15 15 14 14 15 14 14 14 14 14 14 14 14 14 14 14 14 14 14 14 14 14
15 15 15 15 15 15 15 15 15 15 15 15 15 15 15 15 15 15 15 14 14 14 14 14 14 14 14 14 14 14 14 14 14 14 14 14 14 14 14 14 14 14 14
15 15 15 15 14 14 14 14 14 14 14 14 15 15 15 15 15 15 14 14 14 14 14 14 14 14 14 14 14 14 14 14 14 14 14 14 14 14 14 14 14 14 14
14 14 14 14 14 14 14 14 14 14 14 14 14 14 14 14 14 14 14 14 14 14 14 14 14 14 14 14 14 14 14 14 14 14 14 14 14 14 14 14 14 14 14
14 14 14 14 14 14 14 14 14 14 14 14 14 14 14 14 14 14 14 14 14 14 14 14 14 14 13 14 14 14 14 14 14 14 14 14 14 14 14 14 14 13 13
14 14 14 14 14 14 14 13 13 13 13 13 13 13 13 13 13 13 13 13 13 13 13 13 13 13 13 13 13 13 13 14 13 13 13 13 14 14 13 13 13 13 13
14 14 14 13 13 13 13 13 13 13 13 13 13 13 13 13 13 13 13 13 13 13 13 13 13 13 13 13 13 13 13 13 13 13 13 13 13 13 13 13 13 13 13
13 13 13 13 13 13 13 13 13 13 13 13 13 13 13 13 13 13 13 13 13 13 13 13 12 12 13 13 13 13 13 13 13 13 13 13 13 13 13 13 13 13 12
13 13 13 13 13 13 12 12 12 12 12 12 12 12 13 13 13 13 12 12 12 12 12 12 12 12 12 12 12 12 12 12 12 12 13 13 13 13 13 13 13 12 12
13 13 13 13 12 12 12 12 12 12 12 12 12 12 12 12 12 12 12 12 12 12 12 12 12 12 12 12 12 12 12 12 12 12 12 12 12 12 12 12 12 12 12
13 13 13 12 12 12 12 12 12 12 12 12 12 12 12 12 12 12 12 12 12 11 12 12 12 12 11 11 11 11 12 12 12 12 12 12 12 12 12 12 12 12 12
13 12 12 12 12 12 11 11 11 11 11 11 11 11 11 11 11 11 11 11 11 11 11 11 11 11 11 11 11 11 11 11 12 12 12 12 12 12 12 12 12 12 12
12 12 12 12 11 11 11 11 11 11 11 11 11 10 10 11 11 11 11 11 11 11 11 11 11 11 11 11 11 11 11 11 11 11 11 11 11 11 11 12 12 12 12
12 12 11 11 11 11 11 11 10 10 10 10 10 10 10 10 10 10 10 10 10 10 11 10 10 10 10 10 11 10 10 11 11 11 11 11 11 11 11 11 11 11 11
11 11 11 11 11 11 10 10 10 10 10 10 10 10 10 10 10 10 10 10 10 10 10 10 10 10 10 10 10 10 10 10 10 10 10 10 10 11 11 11 11 11 11
11 10 10 10 10 10 10 10 9 9 9 9 9 9 9 9 9 9 9 9 9 9 9 9 9 9 9 10 10 10 10 10 10 10 10 10 10 10 10 10 10 10 11
10 10 10 10 10 9 9 9 9 9 9 9 9 9 9 9 9 9 9 9 9 9 9 9 9 9 9 9 9 9 9 9 9 9 9 10 10 10 10 10 10 10 10
9 9 9 9 9 9 9 9 9 9 9 9 8 8 8 8 8 8 8 8 8 8 8 8 8 8 8 9 9 9 9 9 9 9 9 9 9 9 9 9 10 10 10
9 9 9 9 9 9 8 8 8 8 8 8 8 8 8 8 8 8 8 8 8 8 8 8 8 8 8 8 8 8 8 8 8 8 9 9 9 9 9 9 9 9 9
9 8 8 8 8 8 8 8 8 8 8 8 7 7 8 8 8 8 8 8 8 8 8 8 8 8 8 8 8 8 8 8 8 8 8 8 8 8 9 9 9 9 9
8 8 8 8 8 8 8 8 8 7 7 7 7 7 7 7 7 7 7 7 7 7 7 7 7 7 7 7 7 7 7 8 8 8 8 8 8 8 8 8 8 8 8
8 7 7 7 7 7 7 7 7 7 7 7 7 7 7 7 7 7 7 7 7 7 7 7 7 7 7 7 7 7 7 7 7 7 7 7 7 7 7 7 8 8 8
Wind_Speed
3 3 3 3 3 3 2 2 2 3 4 4 4 5 4 6 7 7 8 9 8 8 8 8 8 9 9 9 10 9 9 9 8 8 8 8 8 8 9 10 10 10 9
3 2 2 2 2 3 3 2 3 4 3 3 4 4 4 5 5 7 8 8 7 7 7 7 8 8 9 9 9 9 8 8 8 8 8 8 8 8 8 9 9 9 9
5 4 3 3 2 4 5 4 5 4 4 4 4 3 3 4 4 5 7 7 7 6 6 6 6 7 8 9 9 8 8 8 8 8 8 8 8 7 7 9 9 9 9
7 5 3 3 4 4 4 3 4 3 3 3 3 3 3 3 3 3 4 6 6 6 6 6 6 7 7 8 8 8 7 8 8 9 8 8 8 8 7 8 8 8 8
7 5 3 3 5 4 3 4 3 3 3 3 2 2 2 2 2 3 3 5 6 6 6 6 6 6 6 7 7 7 7 7 8 8 8 8 8 7 7 6 6 6 6
7 6 4 5 5 4 4 3 4 3 2 2 2 3 2 1 1 2 3 4 4 5 6 6 5 5 5 6 6 6 6 6 6 6 7 6 6 6 6 5 5 6 6
6 4 3 3 4 4 3 3 3 3 2 2 2 2 2 1 3 2 2 2 3 3 4 5 4 4 5 5 6 6 6 6 4 5 5 5 5 5 5 5 5 5 6
5 4 3 2 3 2 3 3 3 2 2 2 1 1 1 2 3 2 2 2 2 2 3 3 4 4 5 5 5 5 5 5 5 4 4 4 5 5 5 4 5 5 5
4 4 3 2 2 2 2 2 2 2 1 2 3 2 1 0 2 2 2 2 2 2 2 2 4 5 6 6 5 5 4 4 5 4 3 3 4 4 4 4 3 4 4
3 3 3 3 2 2 2 2 2 1 1 1 2 2 1 0 0 1 2 1 2 2 2 2 3 5 6 6 6 6 5 4 4 4 4 3 3 2 2 3 3 3 3
2 2 2 2 2 2 2 2 2 2 1 1 1 1 2 2 1 0 1 2 2 1 2 2 2 3 5 6 6 5 5 4 4 4 4 4 3 2 1 1 2 2 2
1 2 2 2 2 1 1 1 1 2 2 1 1 1 1 1 1 1 1 1 1 1 1 1 1 2 3 5 5 4 4 4 4 4 4 4 4 2 1 1 2 2 2
1 0 1 1 1 1 1 1 1 1 2 1 1 1 1 1 1 1 1 1 1 1 0 0 0 1 2 4 4 3 2 2 2 3 3 4 4 2 2 1 0 1 1
1 1 1 1 1 2 2 1 1 2 2 2 3 2 2 1 1 1 1 1 2 1 1 1 0 1 2 2 3 2 2 2 1 0 1 2 2 1 1 1 0 0 1
1 1 1 1 1 1 2 1 1 2 2 2 2 2 2 2 2 2 1 0 1 2 2 1 0 0 1 1 0 2 3 2 1 0 0 1 1 1 0 0 0 0 0
2 1 1 1 1 1 2 2 1 1 2 1 1 2 2 2 2 2 2 2 1 2 2 1 1 1 0 1 1 0 2 2 2 2 1 1 1 1 1 1 0 0 1
2 1 0 1 1 1 2 2 2 2 2 2 2 2 2 2 2 2 2 2 2 1 2 2 1 0 0 1 1 1 1 3 3 3 2 2 1 1 1 1 1 1 1
1 1 0 1 2 2 2 2 2 2 2 2 2 2 2 2 2 2 2 2 2 2 1 2 2 1 0 1 1 1 0 1 3 4 4 3 2 2 1 1 1 1 1
1 2 1 1 1 1 1 2 2 2 2 2 2 2 2 2 2 2 2 2 2 2 2 1 2 1 1 1 1 2 1 0 1 2 3 3 3 3 2 1 1 1 2
1 1 1 1 2 2 2 2 2 2 2 2 2 2 2 2 2 2 2 2 2 2 2 2 2 1 1 1 1 1 2 1 1 1 0 2 3 3 2 2 1 1 1
2 1 1 1 1 2 2 2 2 2 2 1 1 2 2 3 4 3 3 2 2 1 1 2 2 2 1 1 2 1 1 2 1 1 1 1 1 2 2 1 1 0 1
1 2 2 1 1 1 2 3 2 2 1 1 1 1 1 2 4 5 6 4 3 2 1 1 2 1 2 2 2 2 1 1 2 2 0 1 0 1 2 3 2 2 3
1 1 1 1 1 2 2 2 4 3 1 1 1 1 2 3 4 3 4 5 4 4 3 1 1 2 2 2 2 2 2 2 2 2 0 1 1 1 1 2 3 4 4
1 0 0 0 1 1 2 2 4 2 1 1 2 1 1 2 3 4 3 2 3 3 3 2 1 2 2 2 2 3 4 3 1 1 1 1 1 1 0 2 3 4 4
1 1 1 1 1 0 1 2 3 2 1 2 2 3 2 1 5 6 1 1 2 3 3 3 3 3 4 5 3 1 2 2 2 2 1 0 1 1 1 1 2 3 4
1 1 1 1 1 1 0 2 2 1 1 1 1 2 3 3 4 4 1 1 2 3 3 4 3 3 3 4 3 0 1 1 1 2 2 1 1 0 1 1 1 1 3
Wind_Direction
86 87 88 76 62 49 53 35 47 50 47 54 66 70 75 95 100 97 98 96 89 80 77 73 71 64 59 58 58 57 56 60 62 62 62 60 62 63 65 69 77 85 89
77 77 71 66 66 53 35 50 49 49 46 50 47 63 70 78 95 110 110 105 99 93 86 82 79 73 64 59 58 58 59 60 62 61 62 59 64 67 70 76 82 86 85
60 64 59 45 50 53 48 44 43 46 44 45 35 42 59 74 87 94 112 115 109 103 92 85 86 81 73 65 61 60 59 60 61 64 63 60 62 70 74 81 81 84 82
47 52 47 42 43 52 54 47 45 35 33 34 22 22 38 46 61 88 102 111 105 98 101 95 87 82 75 71 65 61 60 63 66 65 63 60 62 68 75 85 85 83 84
46 53 42 41 44 48 41 40 42 39 35 31 10 28 47 44 28 47 71 96 105 106 107 105 104 92 77 70 66 62 59 64 65 65 63 63 64 66 72 84 88 88 90
44 48 43 37 42 46 41 38 36 30 34 19 14 28 24 58 39 34 44 62 80 100 105 100 111 113 95 77 64 60 56 57 60 60 60 60 63 63 68 79 90 96 97
51 51 45 41 43 42 33 34 40 23 17 17 30 13 3 28 66 54 52 56 58 72 93 104 113 116 117 93 68 57 50 46 50 53 54 57 60 61 70 79 89 99 100
51 53 59 59 59 51 29 31 41 24 1 6 14 23 4 6 10 44 61 52 39 48 68 88 101 97 97 98 74 58 46 38 34 37 43 57 61 64 71 83 89 96 102
54 48 47 57 57 61 44 35 30 38 10 349 11 42 62 312 328 359 46 49 33 29 26 44 86 89 92 99 86 66 53 39 29 27 34 49 57 63 67 77 99 111 110
68 53 45 50 58 54 40 26 34 28 51 358 356 12 31 78 106 323 336 29 34 32 16 21 68 86 88 91 85 67 52 42 35 38 30 33 46 55 61 79 96 114 129
83 74 74 63 57 44 37 25 24 11 31 34 356 342 345 352 343 184 285 325 353 2 10 1 60 91 94 99 101 75 59 54 46 41 33 27 25 29 37 75 102 104 111
66 51 60 68 69 35 29 27 15 6 356 360 348 352 344 339 311 317 263 275 283 282 309 2 25 93 112 108 108 86 77 69 61 51 36 22 15 10 25 70 117 130 120
100 45 63 79 76 50 39 46 8 354 348 355 345 330 334 315 312 303 287 280 276 270 228 279 356 75 107 118 125 103 107 78 67 50 32 23 25 16 4 45 132 170 155
132 119 87 56 44 43 26 44 18 353 1 5 358 355 338 327 340 323 288 289 302 292 267 236 271 107 67 96 117 135 156 159 132 37 355 10 18 21 20 40 20 56 160
115 99 91 96 71 62 53 47 38 9 11 18 358 358 351 340 334 328 326 263 217 272 277 249 352 3 85 91 106 130 149 178 160 126 328 344 360 15 65 96 28 265 348
105 92 81 69 64 56 48 48 41 25 15 9 356 351 350 337 331 339 333 322 292 230 260 272 235 248 127 46 25 119 174 175 175 159 133 71 53 59 96 121 83 240 254
109 135 174 109 86 65 43 41 22 25 13 11 359 356 348 349 344 339 343 335 324 306 263 293 315 244 99 14 24 315 198 160 164 177 167 152 137 108 81 58 220 196 187
41 82 60 65 59 46 40 35 5 6 6 0 347 8 347 351 346 343 342 324 312 303 256 268 291 317 296 297 320 303 184 165 172 189 184 181 155 144 125 97 100 173 173
53 43 39 63 64 53 38 18 13 356 349 355 351 359 351 8 350 344 332 323 312 318 321 284 288 303 301 332 341 321 293 281 202 204 194 190 192 170 155 156 145 150 161
84 65 34 45 55 55 46 24 357 348 354 3 358 354 358 20 358 334 321 319 320 322 322 321 301 289 283 318 6 321 325 329 320 337 237 193 191 178 179 173 143 132 134
42 65 43 29 52 60 34 30 2 348 345 347 355 352 1 17 15 357 343 334 335 322 320 320 310 323 311 334 310 281 305 310 303 331 344 262 172 165 184 185 160 166 185
37 53 41 25 52 47 31 19 8 322 319 314 310 329 345 20 18 4 358 354 354 328 294 284 296 304 291 285 300 300 282 331 294 299 329 293 150 182 184 173 181 187 194
62 57 38 20 71 100 51 9 348 319 304 317 336 340 346 6 15 352 342 342 335 329 315 275 278 283 288 301 305 303 294 258 250 266 252 274 263 230 196 174 170 170 174
116 115 160 316 31 52 47 14 343 322 319 355 3 1 27 12 357 350 333 337 329 315 297 294 265 290 305 296 271 275 273 276 258 316 47 246 265 246 248 175 183 174 170
206 225 199 179 145 139 28 11 1 313 341 356 8 7 18 9 343 344 352 307 312 312 320 311 304 321 333 336 345 341 326 333 306 286 289 230 254 252 234 225 203 200 189
199 212 217 208 173 173 125 11 352 312 323 320 325 353 8 0 350 352 348 311 304 299 304 306 305 312 315 321 316 255 237 263 287 299 288 244 276 11 299 256 212 217 208
Height
1523 1524 1526 1526 1527 1527 1527 1527 1527 1527 1527 1527 1527 1527 1527 1527 1526 1526 1526 1526 1525 1525 1525 1525 1525 1524 1524 1523 1523 1522 1522 1522 1521 1521 1520 1519 1518 1518 1517 1515 1513 1515 1518
1525 1526 1527 1527 1527 1527 1528 1528 1528 1528 1528 1528 1528 1528 1528 1528 1528 1527 1527 1526 1526 1526 1526 1526 1525 1525 1525 1524 1523 1523 1523 1522 1522 1521 1520 1520 1519 1519 1519 1518 1518 1519 1521
1526 1527 1527 1528 1528 1528 1528 1528 1528 1528 1528 1528 1528 1528 1528 1528 1528 1528 1528 1527 1527 1527 1527 1526 1526 1525 1525 1524 1524 1524 1523 1523 1522 1521 1521 1521 1520 1520 1520 1520 1520 1521 1522
1528 1528 1528 1528 1529 1529 1529 1529 1528 1528 1528 1529 1529 1529 1529 1529 1529 1529 1529 1528 1528 1527 1527 1527 1526 1526 1525 1525 1525 1524 1524 1523 1523 1522 1522 1522 1521 1521 1521 1521 1521 1522 1523
1528 1528 1528 1529 1529 1529 1529 1529 1529 1529 1529 1529 1529 1529 1529 1529 1529 1529 1529 1529 1528 1528 1528 1527 1527 1527 1526 1526 1526 1525 1525 1524 1524 1523 1523 1522 1522 1522 1521 1521 1522 1523 1523
1529 1529 1529 1529 1529 1529 1529 1529 1529 1529 1529 1529 1529 1529 1529 1529 1529 1529 1529 1529 1529 1529 1528 1528 1527 1527 1527 1526 1526 1526 1525 1525 1524 1524 1524 1523 1522 1522 1522 1522 1522 1523 1524
1529 1529 1529 1529 1529 1529 1529 1529 1529 1529 1529 1529 1529 1529 1529 1529 1529 1529 1529 1529 1529 1529 1529 1528 1528 1527 1527 1526 1526 1526 1525 1525 1525 1524 1524 1523 1523 1522 1522 1522 1522 1523 1523
1529 1529 1529 1529 1529 1529 1529 1529 1529 1529 1529 1529 1529 1529 1529 1530 1529 1529 1529 1529 1529 1529 1528 1528 1528 1527 1527 1526 1526 1525 1525 1525 1525 1524 1523 1523 1522 1522 1522 1521 1522 1522 1523
1529 1529 1529 1529 1529 1529 1529 1529 1529 1529 1529 1529 1529 1530 1530 1529 1529 1529 1529 1528 1528 1528 1528 1528 1527 1527 1526 1526 1525 1525 1525 1525 1524 1524 1523 1522 1522 1521 1521 1521 1521 1522 1522
1528 1528 1528 1528 1529 1529 1529 1529 1529 1529 1528 1528 1529 1529 1530 1530 1529 1529 1529 1528 1528 1528 1527 1527 1527 1526 1525 1525 1525 1524 1524 1524 1523 1523 1522 1521 1520 1520 1520 1520 1520 1521 1521
1527 1527 1527 1527 1528 1528 1528 1528 1528 1528 1528 1528 1528 1528 1528 1528 1529 1528 1528 1527 1527 1527 1526 1526 1526 1525 1525 1524 1524 1523 1523 1523 1522 1521 1521 1520 1519 1519 1519 1519 1519 1520 1520
1526 1527 1527 1527 1526 1527 1527 1527 1527 1527 1527 1527 1527 1527 1527 1527 1527 1527 1527 1526 1525 1525 1525 1525 1525 1524 1524 1523 1523 1522 1522 1521 1521 1520 1519 1519 1518 1518 1518 1518 1518 1519 1520
1525 1525 1525 1525 1525 1525 1525 1525 1525 1525 1525 1525 1525 1525 1526 1526 1526 1526 1525 1525 1524 1524 1524 1524 1523 1523 1523 1522 1522 1521 1520 1520 1519 1519 1518 1517 1517 1517 1517 1517 1517 1518 1519
1523 1524 1524 1524 1524 1524 1524 1524 1523 1524 1524 1524 1524 1524 1524 1524 1524 1524 1524 1523 1522 1522 1522 1522 1521 1521 1520 1520 1520 1519 1519 1518 1518 1517 1517 1516 1515 1515 1515 1516 1516 1517 1517
1522 1522 1522 1522 1522 1522 1522 1522 1522 1522 1522 1522 1522 1521 1521 1521 1521 1521 1521 1522 1522 1520 1519 1519 1519 1519 1519 1518 1518 1517 1517 1516 1516 1516 1515 1514 1513 1513 1514 1514 1515 1515 1515
1519 1520 1520 1520 1520 1520 1520 1520 1520 1520 1520 1520 1519 1519 1519 1519 1519 1519 1519 1519 1519 1519 1518 1517 1517 1517 1517 1516 1516 1515 1515 1514 1514 1514 1513 1512 1512 1512 1512 1512 1513 1513 1514
1517 1517 1518 1518 1518 1518 1518 1518 1517 1518 1517 1517 1517 1517 1517 1517 1516 1516 1516 1516 1516 1516 1515 1515 1516 1515 1515 1514 1513 1513 1512 1512 1511 1511 1511 1511 1510 1510 1509 1510 1510 1511 1512
1514 1515 1515 1515 1516 1516 1516 1516 1515 1515 1515 1515 1515 1515 1514 1514 1514 1514 1513 1513 1513 1513 1513 1512 1513 1512 1512 1512 1511 1511 1510 1510 1509 1509 1509 1508 1508 1508 1508 1507 1508 1509 1509
1511 1512 1512 1513 1513 1513 1513 1513 1513 1513 1513 1513 1513 1512 1512 1512 1511 1511 1511 1511 1511 1511 1510 1510 1510 1510 1510 1509 1509 1508 1508 1508 1507 1507 1507 1506 1506 1506 1505 1505 1505 1506 1507
1508 1508 1509 1510 1510 1510 1510 1510 1510 1510 1510 1510 1510 1510 1510 1510 1509 1509 1509 1508 1508 1508 1508 1507 1507 1507 1507 1507 1506 1506 1505 1505 1505 1505 1505 1504 1504 1504 1503 1503 1503 1503 1503
1506 1506 1506 1507 1507 1507 1507 1507 1507 1508 1507 1507 1507 1508 1508 1507 1507 1507 1506 1506 1506 1505 1505 1505 1504 1504 1504 1504 1503 1503 1503 1502 1503 1503 1502 1502 1502 1501 1501 1501 1501 1501 1500
1503 1503 1503 1504 1504 1504 1505 1505 1505 1505 1505 1505 1505 1505 1505 1505 1505 1504 1504 1504 1504 1503 1502 1502 1502 1501 1501 1501 1501 1501 1500 1500 1500 1501 1500 1500 1500 1499 1499 1499 1499 1498 1498
1500 1500 1501 1501 1501 1502 1502 1502 1502 1502 1502 1502 1502 1502 1502 1502 1502 1502 1501 1501 1501 1501 1501 1501 1499 1499 1499 1498 1498 1498 1497 1498 1498 1498 1498 1497 1497 1497 1497 1496 1496 1496 1496
1497 1498 1498 1499 1499 1499 1499 1499 1499 1500 1500 1500 1500 1500 1500 1499 1499 1499 1498 1498 1497 1497 1498 1497 1497 1496 1496 1496 1496 1496 1496 1495 1495 1496 1496 1495 1495 1495 1495 1494 1494 1494 1494
1494 1495 1495 1496 1496 1496 1496 1496 1496 1496 1496 1496 1497 1497 1497 1497 1496 1496 1495 1494 1494 1494 1494 1494 1494 1493 1493 1493 1493 1493 1493 1493 1492 1492 1493 1493 1492 1492 1492 1492 1492 1492 1492
1491 1492 1492 1493 1493 1493 1493 1493 1494 1493 1493 1493 1494 1494 1494 1494 1493 1493 1492 1492 1491 1491 1491 1490 1490 1490 1490 1490 1490 1490 1490 1490 1489 1489 1490 1490 1490 1490 1490 1490 1490 1490 1489